Location: STAR School
(35.3054°N, 111.2976°W)
Time: 16:47:38
(UTC-07:00)

deb Explorer IX - Pass Details

Date: 23 May 2019
Orbit: 537 x 1115 km, 38.8° (Epoch: 16 June)

Event Time Altitude Azimuth Distance (km) Brightness Sun altitude
Exits shadow 03:54:44 15° 278° (W) 1,487 ? -14.8°
Maximum altitude 03:57:55 55° 354° (N) 673 ? -14.2°
Drops below altitude 10° 04:02:15 10° 73° (ENE) 1,943 ? -13.6°
Sets 04:04:44 0° 78° (ENE) 2,925 ? -13.1°
